Terug naar catalogus

STARLINK-37396

ActiefCommunicatieVLEO
NORAD 69256·PAYLOAD·🇺🇸 United States

Gelanceerd May 30, 2026 vanaf Cape Canaveral Space Force Station

Loading…

Volgende Passages (komende 24 uur)

TLE

VersSource: CelesTrak SupGP

Epoch: Sep 14, 2026, 22:58 UTC

1 69256C 26117U   26257.95743056 -.00072298  00000+0 -21355-2 0  2570
2 69256  53.1581 179.3182 0001366  94.7311 154.5088 15.34434409    14

Volg STARLINK-37396 in realtime met AllMySat

Download on the App Store